Weather History for Laramie, WY

Change the Weather History Date:

Tuesday, November 20, 2012

  Actual Average Record
Temperature  
Mean Temperature 44 °F 27 °F  
Max Temperature 56 °F 39 °F 60 °F (1989)
Min Temperature 31 °F 16 °F -15 °F (1953)
Degree Days  
Heating Degree Days 21 38  
Month to date heating degree days 539 668  
Since 1 July heating degree days 1604 1911  
Cooling Degree Days 0 0  
Month to date cooling degree days 0 0  
Year to date cooling degree days 211 67  
Moisture  
Dew Point 20 °F    
Average Humidity 44    
Maximum Humidity 64    
Minimum Humidity 24    
Precipitation  
Precipitation 0.00 in 0.02 in 0.14 in (1979)
Month to date precipitation 0.16 0.39  
Year to date precipitation 6.06 10.45  
Sea Level Pressure  
Sea Level Pressure 30.11 in    
Wind  
Wind Speed 15 mph (SW)    
Max Wind Speed 30 mph    
Max Gust Speed 36 mph    
Visibility 10 miles    
Events      
T = Trace of Precipitation, MM = Missing Value Source: NWS Daily Summary

Daily Weather History Graph

Daily Weather History Graph

Search for Another Location

Airport:

Trip Planner

Search our weather history database for the weather conditions in past years. The results will help you decide how hot, cold, wet, or windy it might be!

Date:

Astronomy

Nov. 20, 2012 Rise Set
Actual Time 6:57 AM MST 4:39 PM MST
Civil Twilight 6:27 AM MST 5:09 PM MST
Nautical Twilight 5:53 AM MST 5:42 PM MST
Astronomical Twilight 5:20 AM MST 6:15 PM MST
Moon 12:30 PM MST (11/20) No Moon Set
Length of Visible Light 10h 41m
Length of Day
9h 41m
First Quarter, 52% of the Moon is Illuminated
Nov 20
First Quarter
Nov 28
Full
Dec 6
Last Quarter
Dec 13
New
Dec 19
First Quarter

Hourly Weather History & Observations

Time (MST) Temp. Windchill Dew Point Humidity Pressure Visibility Wind Dir Wind Speed Gust Speed Precip Events Conditions
12:53 AM 37.0 °F 25.6 °F 24.1 °F 59% 30.13 in 10.0 mi WSW 24.2 mph 31.1 mph N/A   Clear
1:53 AM 33.1 °F 28.7 °F 23.0 °F 66% 30.16 in 10.0 mi SSW 4.6 mph - N/A   Clear
2:53 AM 34.0 °F 25.0 °F 23.0 °F 64% 30.13 in 10.0 mi SSW 12.7 mph - N/A   Clear
3:53 AM 34.0 °F 23.4 °F 23.0 °F 64% 30.12 in 10.0 mi SW 17.3 mph - N/A   Clear
4:53 AM 37.0 °F 26.7 °F 21.9 °F 54% 30.16 in 10.0 mi SW 19.6 mph - N/A   Clear
5:53 AM 37.9 °F 27.9 °F 21.9 °F 53% 30.18 in 10.0 mi SW 19.6 mph - N/A   Clear
6:53 AM 35.1 °F 24.8 °F 21.9 °F 59% 30.22 in 10.0 mi WSW 17.3 mph - N/A   Clear
7:53 AM 37.0 °F 26.7 °F 21.9 °F 54% 30.24 in 10.0 mi SW 19.6 mph - N/A   Clear
8:53 AM 42.1 °F 33.9 °F 23.0 °F 47% 30.21 in 10.0 mi SW 17.3 mph 24.2 mph N/A   Clear
9:53 AM 46.9 °F - 21.0 °F 36% 30.16 in 10.0 mi SW 27.6 mph 34.5 mph N/A   Clear
10:53 AM 50.0 °F - 19.9 °F 31% 30.13 in 10.0 mi SW 26.5 mph 32.2 mph N/A   Clear
12:53 PM 54.0 °F - 19.9 °F 26% 30.04 in 10.0 mi West 17.3 mph 20.7 mph N/A   Clear
1:53 PM 55.0 °F - 19.0 °F 24% 30.04 in 10.0 mi SW 15.0 mph 26.5 mph N/A   Clear
2:53 PM 52.0 °F - 18.0 °F 26% 30.05 in 10.0 mi SW 20.7 mph 26.5 mph N/A   Clear
3:53 PM 46.9 °F - 17.1 °F 30% 30.08 in 10.0 mi SW 12.7 mph - N/A   Clear
4:53 PM 45.0 °F 40.1 °F 17.1 °F 33% 30.08 in - SSW 9.2 mph - N/A   Clear
5:53 PM 44.1 °F 37.1 °F 19.0 °F 37% 30.07 in 10.0 mi SW 15.0 mph - N/A   Clear
6:53 PM 41.0 °F 36.4 °F 18.0 °F 40% 30.11 in 10.0 mi South 6.9 mph - N/A   Clear
7:53 PM 37.9 °F 30.9 °F 18.0 °F 45% 30.10 in 10.0 mi South 10.4 mph - N/A   Clear
8:53 PM 39.0 °F 36.8 °F 18.0 °F 43% 30.06 in 10.0 mi WSW 3.5 mph - N/A   Clear
9:53 PM 36.0 °F 29.6 °F 19.0 °F 50% 30.05 in 10.0 mi SE 8.1 mph - N/A   Clear
10:53 PM 42.1 °F 39.2 °F 17.1 °F 37% 29.99 in 10.0 mi Variable 4.6 mph - N/A   Clear
11:32 PM 44.6 °F 36.4 °F 17.6 °F 34% 30.14 in 10.0 mi SSW 20.7 mph 29.9 mph N/A   Clear
11:53 PM 45.0 °F 38.9 °F 17.1 °F 33% 29.95 in 10.0 mi South 12.7 mph 19.6 mph N/A   Clear